CAPE
0 0 0 0 0 0 0 0 0 0 0 0 0 0 0 9 9 0 0 0 0 48 101 109 245 728 1124 1131 1014 1376 1321 1098
0 0 0 0 0 0 0 0 0 0 0 0 0 0 0 0 10 0 1 0 3 0 83 172 197 822 1093 1317 1229 1389 1650 1514
0 0 0 0 0 0 0 0 0 0 0 0 0 0 0 7 28 24 31 27 13 2 68 154 256 857 1288 1492 1362 1663 1742 1740
0 0 0 0 0 0 0 0 0 0 0 0 0 0 0 0 1 36 83 13 66 59 27 96 371 885 1290 1847 1630 1765 2019 2035
0 0 0 0 0 0 0 0 0 0 0 0 0 0 0 0 4 0 0 0 41 115 12 88 361 683 1225 1885 1994 1969 2008 2001
0 0 0 0 0 0 0 0 0 0 0 0 0 0 0 0 0 1 0 1 31 90 42 186 422 638 1178 1521 2174 2198 2275 2050
0 0 0 0 0 0 0 0 0 0 0 0 0 0 0 0 0 0 0 17 51 140 141 398 567 644 1019 1615 2141 2299 2416 2465
0 0 0 0 0 0 0 0 0 0 0 0 0 0 0 0 0 0 0 0 24 276 333 319 645 715 838 1417 2296 2415 2578 2619
0 0 0 0 0 0 0 0 0 0 0 0 0 0 0 0 0 0 0 8 11 209 310 513 766 851 842 1260 2068 2500 2611 2735
0 0 0 0 0 0 0 0 0 0 0 0 0 0 0 0 0 0 0 0 201 307 371 649 756 879 1065 1093 1568 2295 2465 2673
0 0 0 0 0 0 0 0 0 0 0 0 0 0 0 0 0 0 0 0 45 291 347 359 399 580 857 1117 1402 1686 2063 2452
0 0 0 0 0 0 0 0 140 0 0 0 0 0 0 61 74 0 0 0 0 530 851 914 480 536 693 884 1295 1528 1793 1865
0 3 0 0 0 19 2 0 234 37 5 0 21 0 0 47 59 100 19 183 0 0 56 848 1140 721 651 759 928 1403 1618 1713
0 0 0 0 5 5 33 445 136 330 35 14 591 1665 1992 1566 1032 450 59 192 438 0 0 3 845 1170 878 712 814 1059 1221 1266
0 6 0 67 289 800 1039 1203 981 1079 924 1093 1273 1430 1778 2153 2248 2464 2459 2446 2355 319 0 0 627 1409 1246 946 902 895 1069 1044
0 30 0 0 0 116 217 129 96 145 231 425 778 783 1280 1497 1792 2103 2185 2441 2551 2726 2326 2316 1804 1039 1335 1437 1175 1455 1615 1819
3 7 15 0 0 0 0 0 0 0 0 0 6 18 86 154 479 1277 1854 1824 1948 2217 2363 2397 2418 2592 2762 2739 1990 2747 2999 3127
85 14 0 2 0 0 0 0 0 0 0 0 0 0 0 0 0 31 897 1273 975 759 922 1117 1221 1753 2883 2818 2615 2355 2104 1299
28 5 1 0 0 0 0 0 0 0 0 0 0 0 0 0 0 0 357 876 961 854 968 1007 0 3 745 1528 1732 1728 1045 446
CIN
0 0 0 0 0 0 0 0 0 0 0 0 0 0 0 -152 -196 0 0 0 0 -398 -422 -441 -477 -498 -463 -429 -363 -288 -262 -270
0 0 0 0 0 0 0 0 0 0 0 0 0 0 0 -13 -167 0 -95 0 -324 0 -447 -452 -462 -511 -488 -470 -417 -374 -286 -263
0 0 0 0 0 0 0 0 0 0 0 0 0 0 0 -169 -154 -187 -258 -264 -287 -412 -468 -477 -456 -519 -484 -450 -411 -364 -321 -275
0 0 0 0 0 0 0 0 0 0 0 0 0 0 0 -1 -11 -182 -194 -314 -251 -334 -446 -423 -463 -504 -502 -451 -416 -393 -342 -271
0 0 0 0 0 0 0 0 0 0 0 0 0 0 0 -3 -28 0 0 0 -271 -275 -361 -416 -470 -493 -525 -487 -446 -387 -350 -315
0 0 0 0 0 0 0 0 0 0 0 0 0 0 0 0 0 -28 0 -126 -238 -226 -300 -434 -453 -483 -514 -519 -458 -397 -346 -342
0 0 0 0 0 0 0 0 0 0 0 0 0 0 0 0 0 0 0 -305 -142 -201 -286 -431 -446 -460 -512 -500 -482 -436 -376 -348
0 0 0 0 0 0 0 0 0 0 0 0 0 0 0 0 0 0 0 0 -186 -183 -245 -348 -412 -489 -513 -516 -492 -431 -366 -388
0 0 0 0 0 0 0 0 0 0 0 0 0 0 0 0 0 0 0 -123 -258 -261 -293 -320 -390 -455 -499 -520 -518 -448 -399 -361
0 0 0 0 0 0 0 0 0 0 0 0 0 0 0 0 0 0 0 0 -427 -280 -276 -317 -341 -420 -467 -484 -514 -493 -446 -402
0 0 0 0 0 0 0 0 0 0 0 0 0 0 0 0 0 0 0 0 -346 -427 -319 -331 -377 -437 -462 -478 -488 -507 -479 -446
0 0 0 0 0 0 0 0 -239 -22 0 0 0 0 0 -450 -357 -34 0 0 0 -454 -476 -395 -381 -405 -428 -475 -496 -506 -518 -540
0 -1 0 0 0 -89 -15 -3 -250 -354 -158 0 -227 0 0 -570 -425 -404 -181 -263 0 0 -366 -368 -436 -383 -386 -442 -450 -463 -499 -529
0 0 -14 0 -165 -22 -183 -363 -291 -320 -327 -343 -440 -395 -390 -434 -405 -454 -483 -317 -217 0 0 -49 -522 -376 -387 -415 -442 -456 -481 -528
-1 -6 0 -259 -252 -410 -398 -349 -377 -346 -376 -368 -411 -460 -469 -452 -471 -443 -485 -501 -563 -461 0 0 -698 -374 -341 -393 -443 -478 -510 -566
-123 -55 -7 -6 0 -370 -570 -663 -691 -670 -628 -570 -526 -567 -487 -509 -518 -507 -501 -452 -432 -456 -506 -527 -619 -570 -329 -367 -512 -522 -532 -478
-52 -56 -97 0 0 -62 0 0 0 0 0 0 -623 -692 -431 -831 -734 -557 -445 -442 -430 -381 -341 -354 -393 -521 -474 -461 -459 -404 -409 -302
-3 -11 0 0 0 0 0 0 0 0 0 0 0 0 0 0 0 -616 -522 -440 -480 -481 -392 -426 -384 -228 -332 -393 -397 -389 -383 -627
-32 0 0 0 0 0 0 0 0 0 0 0 0 0 0 0 0 0 -557 -417 -341 -326 -303 -292 0 -23 -67 -435 -465 -468 -539 -699
Wind_Speed
19 10 16 10 8 13 7 3 1 5 6 8 11 13 20 25 18 24 26 26 28 26 25 24 21 24 24 23 21 20 20 16
21 9 21 12 9 3 2 14 17 5 6 10 7 12 11 22 26 26 28 30 26 24 25 23 22 22 23 24 25 23 21 18
5 15 18 10 11 3 5 9 11 4 18 8 12 9 10 18 27 28 28 27 23 23 23 24 22 21 22 21 22 20 20 18
26 12 14 20 13 11 9 9 8 17 24 5 9 9 11 17 21 25 24 21 21 22 21 20 22 21 22 21 21 21 20 19
8 9 8 9 15 19 6 4 16 10 5 6 6 6 9 8 8 5 5 8 12 17 18 20 22 21 21 21 22 20 19 18
20 15 6 7 16 16 19 14 12 21 8 5 4 4 7 11 11 15 15 10 16 18 21 21 22 22 21 21 21 21 20 20
15 16 21 14 11 21 23 23 23 19 10 10 10 9 11 9 9 10 11 11 15 14 16 18 20 21 20 19 21 22 22 21
9 13 25 23 21 22 22 23 20 7 7 10 14 8 8 11 9 10 15 16 18 24 26 24 22 22 21 21 21 21 21 23
8 7 21 20 31 15 13 12 14 15 10 10 8 10 10 9 9 9 9 9 17 19 20 22 22 22 22 22 20 22 22 19
8 8 21 14 19 19 9 7 10 12 13 12 16 14 10 8 10 10 11 7 9 14 19 20 22 20 21 19 20 21 21 20
4 4 6 4 6 13 10 12 8 10 8 9 6 7 5 2 1 5 9 9 10 13 14 17 15 17 18 18 19 19 19 20
6 4 7 5 4 12 8 2 3 9 9 8 7 6 5 5 3 2 2 2 5 11 11 10 13 17 18 19 20 22 23 23
11 8 11 5 4 2 10 8 3 4 6 7 7 6 4 3 4 2 2 6 5 7 13 17 16 15 18 19 22 24 23 19
2 7 8 27 19 8 8 3 8 5 2 10 9 7 7 6 4 2 6 7 6 6 8 8 13 18 20 19 22 20 15 15
7 6 11 20 10 8 6 10 4 7 5 10 8 6 6 5 6 6 7 7 7 7 9 8 10 15 19 22 18 15 16 16
5 2 12 20 19 13 11 12 9 9 11 7 12 6 7 7 7 7 7 7 6 8 7 8 8 12 17 17 18 18 17 17
2 5 12 12 17 9 9 13 15 13 14 10 9 8 5 7 7 6 6 7 6 6 9 13 13 9 11 12 16 17 16 13
3 4 3 5 13 9 12 13 11 12 15 12 11 9 6 10 6 6 8 6 6 8 7 9 14 19 5 17 19 17 14 15
8 4 3 3 17 18 16 16 14 13 10 10 10 9 9 6 7 7 8 9 9 10 10 8 6 23 27 11 18 18 17 12
Wind_Direction
217 206 192 229 188 200 189 201 316 229 257 278 227 226 214 213 199 193 196 198 202 198 199 195 189 187 185 184 189 188 190 189
239 215 239 193 175 218 247 219 238 257 238 230 213 233 214 204 202 194 196 204 204 194 196 196 192 187 185 185 187 187 189 190
198 220 218 206 207 213 183 195 226 238 250 190 230 230 208 215 199 196 194 202 201 198 195 193 190 184 186 187 189 188 190 190
230 213 208 223 212 183 206 234 238 228 244 126 203 239 233 202 206 203 197 191 198 193 191 187 189 184 186 184 189 191 187 188
295 280 235 204 223 215 127 123 218 208 265 201 205 291 174 181 179 160 224 188 199 187 186 187 189 188 185 185 189 190 186 188
235 223 180 191 216 212 209 215 219 231 215 279 276 256 272 273 221 196 173 195 184 186 189 188 190 189 188 189 186 185 188 189
272 264 210 198 194 214 215 217 208 230 197 220 240 234 239 253 266 176 159 169 172 185 199 193 187 191 190 190 187 184 188 190
281 253 228 216 219 226 218 218 228 192 208 184 220 220 240 222 223 246 186 186 183 191 190 188 187 187 190 188 188 185 192 197
277 283 214 231 217 202 213 211 206 210 195 194 204 199 213 242 182 214 246 199 190 194 185 190 186 187 189 189 181 188 195 196
274 306 207 219 209 219 190 216 210 224 209 195 207 216 198 195 186 189 160 189 184 194 188 194 189 186 191 185 186 190 195 194
255 266 266 187 176 174 167 241 203 195 212 217 166 82 27 326 148 226 220 180 167 183 201 186 180 190 184 184 191 192 194 196
264 311 256 212 176 135 123 235 310 145 149 147 136 111 236 246 188 102 18 306 223 173 163 173 209 182 183 190 189 195 198 199
254 257 274 295 209 126 119 218 85 85 127 130 106 167 193 257 287 276 251 291 201 226 181 185 180 178 188 191 196 202 203 200
279 261 262 344 314 154 173 111 129 108 128 100 105 92 84 73 63 80 254 273 283 198 220 238 178 180 190 195 203 205 194 189
155 242 319 304 305 8 90 113 68 95 69 116 100 67 45 49 60 48 40 9 337 253 243 226 188 199 188 205 193 184 177 182
56 113 346 358 349 356 41 74 77 83 84 81 106 90 80 58 35 38 36 36 13 8 304 222 198 199 211 194 177 167 168 174
347 356 310 341 351 329 21 58 60 53 64 60 84 62 70 70 39 29 30 27 20 23 16 3 333 163 150 160 161 148 138 140
100 285 277 334 354 16 39 45 41 60 56 39 52 59 42 49 31 33 29 10 13 22 358 13 15 349 181 143 138 133 131 132
109 203 201 124 47 36 46 39 47 51 44 54 29 41 45 37 16 34 38 38 33 42 33 24 24 5 271 103 122 131 131 123